EW1392 Weather Reports


Display with metric or nautical units.
time (UTC)temp
F
wind
direction
speed
MPH
gust
MPH
rain 1hr
in
rain 24hr
in
rain mn
in
humidity
%
barometer
mb
20260507180009 63 147 0.0 2.0 0.00 0.00 0.00 52 1013.8
20260507174502 63 163 0.0 3.0 0.00 0.00 0.00 56 1014.0
20260507173059 62 130 0.0 0.0 0.00 0.00 0.00 56 1014.1
20260507171603 62 225 0.0 1.0 0.00 0.00 0.00 57 1014.1
20260507170056 62 259 0.0 2.0 0.00 0.00 0.00 55 1014.2
20260507164556 61 212 0.0 4.0 0.00 0.00 0.00 55 1014.3
20260507163053 61 311 0.0 5.0 0.00 0.00 0.00 58 1014.3
20260507161551 60 205 0.0 2.0 0.00 0.00 0.00 58 1014.4
20260507160054 58 168 0.0 1.0 0.00 0.00 0.00 64 1014.5
20260507154543 55 294 0.0 4.0 0.00 0.00 0.00 71 1014.6
20260507153048 51 215 0.0 1.0 0.00 0.00 0.00 81 1014.6
20260507151540 48 215 0.0 0.0 0.00 0.00 0.00 87 1014.8
20260507150039 46 215 0.0 0.0 0.00 0.00 0.00 89 1015.0
20260507144538 44 215 0.0 1.0 0.00 0.00 0.00 89 1015.0
20260507143038 44 215 0.0 0.0 0.00 0.00 0.00 89 1015.0
20260507141536 43 215 0.0 0.0 0.00 0.00 0.00 88 1015.0
20260507140045 43 215 0.0 0.0 0.00 0.00 0.00 88 1014.9
20260507134533 43 215 0.0 0.0 0.00 0.00 0.00 87 1014.7
20260507133032 43 215 0.0 0.0 0.00 0.00 0.00 86 1014.5
20260507131534 43 215 0.0 0.0 0.00 0.00 0.00 85 1014.4
20260507130029 44 215 0.0 0.0 0.00 0.00 0.00 84 1014.5
20260507124527 45 215 0.0 0.0 0.00 0.00 0.00 82 1014.5
20260507123026 45 215 0.0 0.0 0.00 0.00 0.00 81 1014.5
20260507121521 46 215 0.0 1.0 0.00 0.00 0.00 79 1014.5
20260507120018 48 215 0.0 0.0 0.00 0.00 0.00 76 1014.6
20260507114515 49 215 0.0 1.0 0.00 0.00 0.00 74 1014.6
20260507113023 50 331 0.0 2.0 0.00 0.00 0.00 74 1014.6
20260507111511 50 309 0.0 1.0 0.00 0.00 0.00 72 1014.6
20260507110008 51 296 0.0 0.0 0.00 0.00 0.00 72 1014.6
20260507104506 51 266 0.0 0.0 0.00 0.00 0.00 69 1014.6
20260507103008 51 159 0.0 1.0 0.00 0.00 0.00 69 1014.7
20260507101503 52 159 0.0 0.0 0.00 0.00 0.00 69 1014.6
20260507100003 52 207 0.0 4.0 0.00 0.00 0.00 67 1014.6
20260507094500 52 255 0.0 3.0 0.00 0.00 0.00 68 1014.6
20260507093100 52 268 0.0 2.0 0.00 0.00 0.00 68 1014.5
20260507091601 52 192 0.0 6.0 0.00 0.00 0.00 67 1014.5
20260507090057 52 169 0.0 2.0 0.00 0.00 0.00 67 1014.4
20260507084558 52 265 0.0 4.0 0.00 0.00 0.00 68 1014.6
20260507083059 53 263 0.0 3.0 0.00 0.00 0.00 67 1014.4
20260507081555 53 192 0.0 2.0 0.00 0.00 0.00 67 1014.2
20260507080121 53 32 0.0 3.0 0.00 0.00 0.00 68 1014.3
20260507074558 53 272 0.0 8.0 0.00 0.00 0.00 67 1014.2
20260507073058 54 300 0.0 3.0 0.00 0.00 0.00 67 1014.2
20260507071600 54 209 1.0 9.0 0.00 0.00 0.00 66 1014.2
20260507070047 54 257 0.0 8.0 0.00 0.00 0.00 67 1014.2
20260507064551 54 302 0.0 4.0 0.00 0.00 0.00 67 1014.3
20260507063046 54 140 0.0 9.0 0.00 0.00 0.00 67 1014.1
20260507061545 55 160 0.0 10.0 0.00 0.00 0.00 66 1014.3
20260507060044 55 303 0.0 3.0 0.00 0.00 0.00 68 1014.3
20260507054551 55 179 0.0 4.0 0.00 0.00 0.00 67 1014.1
20260507053047 56 200 0.0 4.0 0.00 0.00 0.00 66 1014.1
20260507051543 56 270 1.0 6.0 0.00 0.00 0.00 65 1014.2
20260507050042 56 196 1.0 7.0 0.00 0.00 0.00 64 1014.3
20260507044542 56 203 0.0 3.0 0.00 0.00 0.00 64 1014.2
20260507043043 57 207 0.0 4.0 0.00 0.00 0.00 63 1014.1
20260507041539 57 204 0.0 6.0 0.00 0.00 0.00 63 1014.1
20260507040045 58 227 0.0 2.0 0.00 0.00 0.00 63 1013.7
20260507034540 58 224 0.0 3.0 0.00 0.00 0.00 61 1013.6
20260507033037 59 296 0.0 6.0 0.00 0.00 0.00 60 1013.4
20260507031532 60 157 0.0 7.0 0.00 0.00 0.00 60 1013.1
20260507030033 60 80 0.0 3.0 0.00 0.00 0.00 59 1012.7
20260507024534 61 223 0.0 12.0 0.00 0.00 0.00 57 1012.5
20260507023031 62 49 0.0 4.0 0.00 0.00 0.00 56 1012.4
20260507021532 63 119 0.0 11.0 0.00 0.00 0.00 53 1012.3
20260507020034 64 204 0.0 7.0 0.00 0.00 0.00 52 1012.1
20260507014530 65 261 1.0 7.0 0.00 0.00 0.00 51 1012.1
20260507013036 66 190 0.0 3.0 0.00 0.00 0.00 50 1012.0
20260507011537 67 184 0.0 6.0 0.00 0.00 0.00 48 1012.1
20260507010029 67 204 0.0 7.0 0.00 0.00 0.00 49 1012.0
20260507004528 69 291 1.0 5.0 0.00 0.00 0.00 49 1012.0
20260507003029 69 222 1.0 6.0 0.00 0.00 0.00 48 1011.9
20260507001529 70 198 1.0 12.0 0.00 0.00 0.00 48 1011.6
20260507000027 70 267 2.0 7.0 0.00 0.00 0.00 48 1011.4
20260506234531 71 224 1.0 10.0 0.00 0.00 0.00 47 1011.3
20260506233026 71 38 0.0 10.0 0.00 0.00 0.00 47 1011.1
20260506231526 71 325 1.0 7.0 0.00 0.00 0.00 47 1011.0
20260506230025 71 174 3.0 9.0 0.00 0.00 0.00 46 1011.0
20260506224529 71 215 0.0 8.0 0.00 0.00 0.00 46 1011.1
20260506223024 72 226 1.0 6.0 0.00 0.00 0.00 44 1011.2
20260506221524 72 202 1.0 6.0 0.00 0.00 0.00 41 1011.2
20260506220024 72 302 2.0 6.0 0.00 0.00 0.00 39 1011.3
20260506214523 72 244 0.0 6.0 0.00 0.00 0.00 39 1011.4
20260506213023 72 250 1.0 10.0 0.00 0.00 0.00 42 1011.4
20260506211521 72 212 0.0 5.0 0.00 0.00 0.00 37 1011.5
20260506210024 72 292 0.0 7.0 0.00 0.00 0.00 39 1011.4
20260506204521 72 246 1.0 4.0 0.00 0.00 0.00 36 1011.2
20260506203025 73 275 0.0 5.0 0.00 0.00 0.00 37 1011.3
20260506201522 74 213 1.0 6.0 0.00 0.00 0.00 36 1011.3
20260506200023 74 77 0.0 5.0 0.00 0.00 0.00 37 1011.3
20260506194519 73 265 1.0 6.0 0.00 0.00 0.00 39 1011.2
20260506193017 74 217 0.0 8.0 0.00 0.00 0.00 37 1011.2
20260506191517 73 298 1.0 7.0 0.00 0.00 0.00 37 1011.3
20260506190016 73 333 0.0 10.0 0.00 0.00 0.00 41 1011.1
20260506184514 73 214 1.0 6.0 0.00 0.00 0.00 45 1011.2
20260506183014 73 218 0.0 5.0 0.00 0.00 0.00 47 1011.4
20260506181512 73 224 1.0 5.0 0.00 0.00 0.00 45 1011.4